Regional Weather Roundup
Issued by NWS

Home | Current Version | Previous Version | Text Only | Print | Product List | Glossary On
Versions: 1 2 3 4 5 6 7 8 9 10 11 12 13 14 15 16 17 18 19 20 21 22 23 24 25 26 27 28 29 30 31 32 33 34 35 36 37 38 39 40 41 42 43 44 45 46 47 48 49 50
000
ASUS44 KFWD 201810
RWRTX
NORTH TEXAS HOURLY WEATHER ROUNDUP
NATIONAL WEATHER SERVICE FORT WORTH TX
100 PM CDT SAT SEP 20 2014

NOTE: "FAIR" INDICATES FEW OR NO CLOUDS BELOW 12,000 FEET WITH NO
SIGNIFICANT WEATHER AND/OR OBSTRUCTIONS TO VISIBILITY.

TXZ118-119-201900-
DALLAS/FORT WORTH METROPLEX

CITY           SKY/WX    TMP DP  RH WIND       PRES   REMARKS
DFW AIRPORT    PTSUNNY   88  68  51 SE13      30.00F HX  91
6HR MIN TEMP:  72; 6HR MAX TEMP:  89;

DALLAS LOVE    PTSUNNY   88  68  51 S10       30.00F HX  91
6HR MIN TEMP:  72; 6HR MAX TEMP:  88;

FTW MEACHAM    CLOUDY    85  68  56 S7        30.00F
6HR MIN TEMP:  74; 6HR MAX TEMP:  86;

DAL-EXECUTIVE  PTSUNNY   87  66  49 SE9       30.00F
6HR MIN TEMP:  72; 6HR MAX TEMP:  89;

FTW-ALLIANCE   PTSUNNY   87  66  49 SE10G18   30.00F
6HR MIN TEMP:  71; 6HR MAX TEMP:  88;

FTW-NAS-JRB    CLOUDY    88  67  49 S8        30.05F HX  91
6HR MIN TEMP:  77; 6HR MAX TEMP:  88;

FTW-SPINKS     PTSUNNY   86  68  54 S10       30.02F
ARLINGTON      CLOUDY    86  67  52 SE13      30.00F
6HR MIN TEMP:  70; 6HR MAX TEMP:  87; 6HR PCP: TRACE;

GRAND PRAIRIE  SUNNY     86  66  51 MISG      30.02F
MESQUITE       MOSUNNY   90  61  37 SE9       30.01F
LANCASTER      MOSUNNY   87  64  44 SE8       30.01F
6HR MIN TEMP:  68; 6HR MAX TEMP:  88;

$$

TXZ091>094-102>105-117-120-121-131>134-201900-
NORTH CENTRAL TEXAS

CITY           SKY/WX    TMP DP  RH WIND       PRES   REMARKS
SHRMAN/DENISON MOSUNNY   85  67  54 SE8       30.04F
6HR MIN TEMP:  71; 6HR MAX TEMP:  86;

GAINESVILLE    MOSUNNY   84  67  57 SE12      30.05S
6HR MIN TEMP:  69; 6HR MAX TEMP:  85;

BOWIE          PTSUNNY   84  69  62 SE6       30.03F
6HR MIN TEMP:  70; 6HR MAX TEMP:  85;

BRIDGEPORT     MOSUNNY   84  67  56 SE8       30.04F
6HR MIN TEMP:  70; 6HR MAX TEMP:  84;

DECATUR        MOSUNNY   83  66  57 SE7       30.03F
6HR MIN TEMP:  70; 6HR MAX TEMP:  84;

DENTON         PTSUNNY   87  66  49 SE10      30.01F
6HR MIN TEMP:  70; 6HR MAX TEMP:  88;

MCKINNEY       MOSUNNY   87  67  51 SE13G20   30.01F HX  90
6HR MIN TEMP:  70; 6HR MAX TEMP:  87;

GREENVILLE     SUNNY     90  55  31 S14       30.02F
ROCKWALL       MOSUNNY   87  66  49 SE8       30.00F
6HR MIN TEMP:  70; 6HR MAX TEMP:  87;

TERRELL        SUNNY     90  60  36 SE9       30.01F
6HR MIN TEMP:  73; 6HR MAX TEMP:  91;

WAXAHACHIE     MOSUNNY   88  63  43 SE10      30.01F
6HR MIN TEMP:  69; 6HR MAX TEMP:  89;

CLEBURNE       PTSUNNY   82  73  74 SE10      30.03F
GRANBURY       CLOUDY    85  68  56 E7        30.02F
6HR MIN TEMP:  75; 6HR MAX TEMP:  85;

$$

TXZ083>090-098>101-113>116-127>130-139>142-154-155-201900-
WESTERN NORTH TEXAS

CITY           SKY/WX    TMP DP  RH WIND       PRES   REMARKS
WICHITA FALLS  MOSUNNY   85  70  60 E8        30.01F
6HR MIN TEMP:  70; 6HR MAX TEMP:  85;

WF-KICKAPOO    PTSUNNY   85  67  54 S6        30.03F
6HR MIN TEMP:  70; 6HR MAX TEMP:  85;

VERNON         CLOUDY    85  67  55 S6        30.03S
6HR MIN TEMP:  68; 6HR MAX TEMP:  90;

ABILENE        CLOUDY    80  69  69 SE12      30.04S
6HR MIN TEMP:  73; 6HR MAX TEMP:  81;

ABILENE-DYESS  CLOUDY    80  64  57 S9        30.03S
6HR MIN TEMP:  72; 6HR MAX TEMP:  81; 6HR PCP: TRACE;

BRECKENRIDGE   CLOUDY    83  69  62 CALM      30.02F
6HR MIN TEMP:  74; 6HR MAX TEMP:  83;

GRAHAM         CLOUDY    84  67  57 SE5       30.01S
6HR MIN TEMP:  73; 6HR MAX TEMP:  84;

MINERAL WELLS  CLOUDY    85  68  56 SE7       30.00F
6HR MIN TEMP:  71; 6HR MAX TEMP:  86;

STEPHENVILLE   CLOUDY    82  69  62 SE5       30.06S
6HR MIN TEMP:  73; 6HR MAX TEMP:  83;

COMANCHE       RAIN      79  70  74 S7        30.03F
6HR MIN TEMP:  72; 6HR MAX TEMP:  82;

BROWNWOOD      CLOUDY    81  70  69 S6        30.02F
COLEMAN        CLOUDY    79  69  72 S7        30.04F
6HR MIN TEMP:  73; 6HR MAX TEMP:  79;

BRADY          CLOUDY    79  70  73 SE7       30.03S
$$

TXZ143>147-156>162-174-175-201900-
CENTRAL TEXAS

CITY           SKY/WX    TMP DP  RH WIND       PRES   REMARKS
WACO           MOSUNNY   82  71  69 VRB5      30.00F
6HR MIN TEMP:  74; 6HR MAX TEMP:  83; 6HR PCP:  0.01;

WACO-TSTC      PTSUNNY   82  75  78 S5        30.00F
WACO-MCGREGOR  PTSUNNY   82  70  65 S9        30.02S
6HR MIN TEMP:  73; 6HR MAX TEMP:  84;

HILLSBORO      MOSUNNY   87  68  52 SE10G17   30.01F HX  90
6HR MIN TEMP:  73; 6HR MAX TEMP:  87;

CORSICANA      SUNNY     89  61  38 SE10G23   30.01F
6HR MIN TEMP:  73; 6HR MAX TEMP:  89;

MEXIA          MOSUNNY   85  67  54 SE9       29.99F
6HR MIN TEMP:  71; 6HR MAX TEMP:  86;

HEARNE         PTSUNNY   86  69  55 E3        29.99F HX  90
6HR MIN TEMP:  73; 6HR MAX TEMP:  86;

CAMERON        CLOUDY    85  71  62 E9        29.99S
6HR MIN TEMP:  73; 6HR MAX TEMP:  85;

TEMPLE         CLOUDY    81  70  69 E9        30.00F
6HR MIN TEMP:  73; 6HR MAX TEMP:  81; 6HR PCP:  0.02;

KILLEEN        CLOUDY    82  70  65 E7        30.05F
KILLEEN-SKYLRK PTSUNNY   82  70  65 SE3       30.00F
6HR MIN TEMP:  73; 6HR MAX TEMP:  82;

FORT HOOD      CLOUDY    86  71  60 E7        30.00F HX  91
6HR MIN TEMP:  76; 6HR MAX TEMP:  87;

GATESVILLE     MOSUNNY   82  70  65 E5        30.03F
HAMILTON       CLOUDY    83  69  62 SE8G17    30.04F
6HR MIN TEMP:  73; 6HR MAX TEMP:  83;

LAMPASAS       CLOUDY    81  73  76 E7        30.01F
6HR MIN TEMP:  73; 6HR MAX TEMP:  81; 6HR PCP:  0.02;

$$

TXZ095>097-106>112-122>126-135>138-148>153-164>167-201900-
EAST TEXAS

CITY           SKY/WX    TMP DP  RH WIND       PRES   REMARKS
PARIS          MOSUNNY   86  66  51 S6        30.05S
6HR MIN TEMP:  70; 6HR MAX TEMP:  86;

SULPHUR SPRNGS SUNNY     88  62  41 S5        30.04F
6HR MIN TEMP:  68; 6HR MAX TEMP:  89;

MOUNT PLEASANT SUNNY     87  65  47 SE9       30.04F
6HR MIN TEMP:  69; 6HR MAX TEMP:  88;

GILMER         MOSUNNY   88  66  48 SE5       30.03F HX  90
MINEOLA        SUNNY     88  64  45 SE6       30.03F
TYLER          SUNNY     88  63  43 SE14      30.02F
6HR MIN TEMP:  70; 6HR MAX TEMP:  88;

LONGVIEW       MOSUNNY   88  64  44 VRB5      30.01F
6HR MIN TEMP:  69; 6HR MAX TEMP:  89;

MARSHALL       PTSUNNY   92  68  44 SE3       30.03F HX  96
6HR MIN TEMP:  68; 6HR MAX TEMP:  92;

ATHENS         MOSUNNY   86  63  45 CALM      30.00F
PALESTINE      SUNNY     86  67  51 E13       30.02F
JACKSONVILLE   SUNNY     87  64  45 SE8       30.04F
HENDERSON      MOSUNNY   87  65  46 E6        30.02F
6HR MIN TEMP:  67; 6HR MAX TEMP:  88;

NACOGDOCHES    SUNNY     88  66  48 SE8       30.01F HX  90
6HR MIN TEMP:  64; 6HR MAX TEMP:  88;

LUFKIN         SUNNY     90  65  43 E13       29.99F HX  92
6HR MIN TEMP:  71; 6HR MAX TEMP:  90;

$$

SUPPLEMENTAL OBSERVATIONS (CENTRAL)

CITY           SKY/WX    TMP DP  RH WIND       PRES   REMARKS
CADDO GRASSLND   N/A     88  70  55 S5          N/A  HX  92
PAT MAYSE LAKE   N/A     82  66  57 SE7         N/A
GREENVILLE       N/A     90  59  35 S9          N/A
CEDAR HILL       N/A     90  68  48 SE5G15      N/A  HX  93
PALESTINE        N/A     88  64  45 SE8G17      N/A
MCGREGOR         N/A     84  70  61 SE9         N/A
TEMPLE           N/A     82  70  65 E8          N/A
$$

SUPPLEMENTAL OBSERVATIONS (WEST)

CITY           SKY/WX    TMP DP  RH WIND       PRES   REMARKS
MILLERS CREEK    N/A     82  73  74 S8          N/A


USA.gov is the U.S. government's official web portal to all federal, state and local government web resources and services.